Temp
-8 -7 -7 -7 -7 -7 -7 -7 -6 -5 -6 -6 -6 -6 -5 -6 -6 -5 -5 -6 -5 -5 -5 -5 -5 -5 -5 -6 -6 -6 -7 -7 -5 -4 -5 -5 -6 -6 -6 -6 -7 -6 -6 -6 -6 -6 -5 -5 -5 -5 -5 -5 -5 -5 -5 -5 -4 -4 -4 -5 -5 -4 -4
-8 -8 -8 -8 -7 -7 -7 -6 -5 -6 -7 -7 -6 -6 -6 -6 -5 -5 -5 -5 -5 -5 -4 -5 -5 -5 -5 -5 -6 -6 -6 -6 -6 -5 -5 -5 -6 -6 -6 -7 -7 -7 -6 -6 -6 -6 -6 -5 -5 -5 -5 -5 -5 -5 -5 -5 -5 -4 -4 -4 -4 -4 -4
-8 -8 -9 -8 -8 -7 -6 -6 -6 -7 -7 -6 -6 -6 -6 -5 -5 -5 -5 -5 -5 -5 -4 -4 -5 -5 -5 -6 -6 -6 -6 -6 -6 -5 -5 -5 -6 -6 -7 -7 -7 -7 -6 -6 -6 -6 -6 -5 -5 -5 -5 -5 -5 -5 -5 -5 -5 -4 -4 -4 -4 -4 -4
-9 -9 -9 -8 -7 -6 -7 -7 -7 -7 -7 -6 -6 -6 -5 -5 -5 -5 -5 -5 -5 -4 -4 -4 -5 -5 -5 -6 -6 -6 -6 -6 -6 -5 -5 -5 -5 -6 -6 -7 -7 -7 -7 -7 -6 -6 -6 -5 -5 -5 -5 -5 -5 -5 -5 -5 -4 -4 -4 -4 -4 -4 -3
-10 -10 -9 -8 -7 -6 -7 -7 -7 -7 -7 -7 -7 -7 -6 -6 -5 -5 -5 -5 -4 -4 -5 -5 -5 -5 -5 -6 -6 -6 -6 -6 -6 -5 -5 -4 -5 -6 -6 -7 -7 -7 -7 -7 -6 -6 -6 -5 -5 -5 -5 -5 -4 -4 -4 -4 -4 -4 -4 -4 -4 -4 -4
-10 -10 -9 -7 -7 -7 -7 -7 -7 -7 -7 -7 -7 -7 -7 -6 -6 -5 -5 -4 -4 -5 -5 -5 -5 -5 -5 -6 -6 -6 -6 -6 -6 -5 -5 -4 -5 -6 -6 -6 -7 -7 -7 -6 -6 -6 -6 -5 -5 -5 -5 -5 -5 -5 -4 -4 -4 -4 -4 -4 -4 -4 -4
-9 -9 -8 -8 -9 -8 -8 -7 -7 -7 -7 -7 -6 -6 -6 -6 -5 -5 -5 -5 -4 -5 -5 -5 -5 -5 -5 -6 -6 -6 -5 -5 -5 -5 -5 -4 -5 -5 -6 -6 -7 -7 -7 -6 -6 -6 -6 -5 -5 -5 -5 -5 -5 -5 -5 -4 -4 -4 -4 -4 -4 -4 -4
-9 -8 -9 -9 -10 -9 -9 -8 -8 -7 -7 -6 -6 -6 -6 -5 -5 -5 -5 -5 -5 -5 -5 -5 -5 -5 -5 -5 -5 -5 -4 -4 -5 -5 -5 -5 -5 -6 -6 -7 -7 -7 -7 -6 -6 -6 -6 -6 -6 -5 -5 -5 -5 -5 -5 -5 -4 -4 -4 -4 -4 -4 -5
-9 -9 -9 -10 -10 -10 -10 -9 -8 -7 -7 -6 -7 -7 -6 -6 -6 -6 -6 -5 -5 -6 -5 -5 -5 -5 -5 -5 -5 -5 -4 -4 -4 -4 -5 -5 -5 -6 -7 -7 -7 -7 -7 -6 -6 -6 -6 -6 -6 -6 -5 -5 -5 -5 -5 -5 -5 -4 -4 -4 -4 -4 -4
-10 -10 -10 -10 -10 -10 -10 -9 -8 -8 -7 -7 -7 -7 -7 -6 -6 -6 -6 -6 -6 -6 -6 -5 -5 -5 -5 -5 -5 -5 -5 -5 -4 -4 -5 -5 -5 -6 -7 -7 -7 -7 -7 -6 -6 -6 -6 -6 -6 -6 -6 -6 -5 -5 -5 -5 -5 -5 -4 -4 -4 -4 -4
-10 -9 -10 -10 -10 -10 -10 -9 -9 -8 -8 -8 -8 -8 -7 -6 -6 -6 -6 -6 -6 -6 -6 -6 -6 -6 -5 -5 -5 -5 -5 -5 -5 -5 -5 -5 -5 -6 -7 -7 -7 -7 -7 -6 -6 -6 -7 -7 -6 -6 -6 -6 -6 -6 -5 -5 -5 -5 -5 -5 -4 -4 -4
-10 -10 -10 -10 -10 -10 -9 -9 -9 -9 -9 -9 -9 -8 -7 -7 -7 -6 -6 -6 -7 -6 -6 -6 -6 -6 -6 -5 -5 -5 -5 -5 -5 -5 -5 -5 -6 -6 -6 -7 -7 -7 -6 -6 -6 -6 -7 -7 -6 -6 -6 -6 -6 -6 -6 -5 -5 -5 -5 -5 -5 -4 -4
-10 -10 -10 -10 -10 -10 -9 -9 -9 -9 -9 -9 -9 -8 -8 -8 -7 -6 -6 -7 -7 -7 -7 -7 -7 -6 -6 -6 -6 -6 -6 -6 -5 -5 -5 -5 -6 -6 -6 -7 -7 -7 -7 -7 -6 -6 -7 -6 -6 -6 -6 -6 -6 -6 -6 -6 -5 -5 -5 -5 -5 -5 -5
-10 -10 -11 -10 -10 -10 -9 -9 -9 -9 -9 -9 -9 -8 -8 -8 -7 -7 -7 -7 -7 -7 -7 -7 -7 -7 -7 -7 -7 -6 -6 -6 -6 -5 -5 -5 -6 -6 -7 -7 -7 -7 -7 -7 -6 -6 -6 -6 -6 -6 -6 -7 -6 -6 -6 -6 -6 -6 -5 -5 -5 -5 -5
-10 -11 -10 -10 -10 -10 -10 -10 -10 -9 -9 -9 -9 -9 -8 -8 -8 -8 -7 -7 -7 -7 -7 -7 -7 -7 -7 -7 -7 -6 -6 -6 -5 -5 -5 -5 -5 -6 -7 -7 -7 -7 -7 -7 -7 -7 -7 -7 -7 -6 -7 -7 -7 -7 -6 -6 -6 -6 -6 -6 -6 -6 -6
-10 -10 -10 -10 -10 -10 -10 -10 -10 -10 -9 -9 -9 -9 -9 -9 -8 -8 -8 -8 -8 -7 -7 -7 -7 -7 -7 -7 -7 -7 -6 -6 -5 -5 -5 -5 -6 -6 -7 -7 -7 -7 -7 -7 -7 -7 -6 -7 -7 -7 -7 -7 -7 -7 -7 -7 -7 -7 -6 -6 -6 -6 -6
-11 -11 -10 -10 -10 -10 -10 -10 -10 -10 -10 -9 -9 -9 -9 -9 -9 -8 -8 -8 -8 -8 -7 -7 -7 -7 -7 -7 -7 -6 -6 -6 -5 -5 -5 -5 -6 -6 -7 -7 -7 -7 -7 -7 -7 -7 -7 -7 -7 -7 -7 -7 -7 -7 -7 -7 -7 -7 -7 -7 -7 -7 -7
-11 -11 -10 -10 -10 -10 -10 -10 -10 -10 -10 -10 -9 -9 -9 -9 -9 -8 -8 -8 -8 -8 -7 -7 -7 -7 -6 -6 -6 -6 -6 -6 -5 -5 -5 -5 -6 -6 -7 -7 -7 -7 -7 -7 -7 -7 -7 -7 -7 -7 -7 -7 -7 -8 -8 -8 -7 -7 -7 -7 -7 -7 -7
-11 -11 -10 -10 -10 -10 -10 -10 -10 -10 -10 -10 -9 -9 -9 -9 -9 -9 -9 -8 -8 -8 -8 -7 -7 -7 -6 -6 -6 -6 -6 -6 -6 -5 -5 -5 -5 -6 -6 -7 -7 -7 -7 -7 -7 -7 -7 -7 -7 -7 -7 -7 -7 -7 -7 -7 -7 -7 -7 -7 -7 -7 -7
-11 -11 -10 -10 -10 -10 -10 -10 -10 -10 -10 -10 -10 -9 -9 -9 -9 -9 -9 -8 -8 -8 -8 -8 -7 -7 -6 -6 -6 -6 -6 -6 -6 -6 -5 -5 -5 -5 -5 -5 -6 -6 -6 -6 -6 -6 -6 -6 -6 -6 -7 -7 -7 -7 -7 -7 -7 -7 -7 -7 -7 -7 -7
-11 -11 -10 -10 -11 -10 -10 -10 -10 -10 -10 -10 -10 -9 -9 -9 -9 -9 -9 -8 -8 -8 -8 -8 -8 -7 -7 -6 -7 -6 -6 -6 -6 -6 -6 -6 -5 -5 -5 -5 -5 -5 -5 -6 -6 -6 -6 -6 -6 -6 -7 -7 -7 -7 -7 -7 -7 -7 -7 -7 -7 -7 -7
-12 -11 -11 -10 -10 -10 -11 -11 -10 -10 -10 -10 -9 -9 -9 -9 -9 -9 -9 -9 -9 -8 -8 -8 -8 -8 -7 -7 -7 -7 -6 -6 -6 -6 -6 -6 -6 -6 -6 -6 -6 -6 -6 -6 -6 -6 -6 -6 -6 -6 -6 -7 -7 -7 -7 -7 -7 -7 -7 -7 -7 -7 -7
-12 -11 -11 -11 -10 -10 -11 -10 -10 -10 -10 -10 -9 -9 -9 -9 -9 -9 -9 -9 -9 -9 -8 -8 -8 -8 -8 -8 -7 -7 -7 -6 -6 -6 -6 -6 -6 -6 -6 -6 -6 -6 -6 -6 -6 -6 -6 -6 -6 -6 -6 -7 -7 -7 -7 -7 -7 -7 -7 -7 -7 -7 -7
-12 -12 -11 -11 -10 -10 -10 -10 -10 -10 -10 -10 -9 -9 -9 -9 -9 -9 -9 -9 -9 -9 -9 -8 -8 -8 -8 -8 -8 -7 -7 -7 -7 -6 -6 -6 -6 -6 -6 -6 -6 -6 -6 -6 -6 -6 -6 -6 -6 -6 -7 -7 -7 -7 -7 -7 -7 -7 -7 -7 -7 -7 -7
-12 -12 -11 -11 -10 -11 -11 -10 -10 -10 -10 -10 -9 -9 -9 -9 -9 -9 -9 -9 -9 -9 -9 -9 -8 -8 -8 -8 -8 -8 -8 -8 -7 -7 -7 -6 -6 -6 -6 -6 -6 -6 -6 -6 -6 -6 -6 -6 -6 -6 -7 -7 -7 -7 -7 -7 -7 -7 -7 -7 -7 -7 -7
-12 -12 -11 -11 -11 -11 -11 -11 -10 -10 -10 -10 -9 -9 -9 -9 -9 -9 -9 -9 -8 -8 -8 -9 -9 -9 -9 -8 -8 -8 -8 -8 -8 -8 -7 -7 -7 -7 -7 -7 -7 -7 -7 -6 -6 -6 -6 -6 -7 -7 -7 -7 -7 -7 -7 -7 -7 -7 -7 -7 -7 -7 -7
-12 -12 -12 -11 -11 -11 -11 -11 -11 -10 -10 -10 -9 -9 -9 -9 -9 -9 -9 -9 -8 -8 -8 -8 -8 -9 -9 -9 -8 -8 -8 -8 -8 -8 -8 -8 -7 -7 -7 -7 -7 -7 -7 -6 -6 -6 -6 -6 -7 -7 -7 -7 -7 -7 -7 -7 -7 -7 -7 -7 -7 -7 -7
-12 -12 -12 -12 -11 -11 -11 -11 -11 -10 -10 -10 -9 -9 -9 -9 -8 -9 -9 -9 -9 -8 -8 -8 -8 -9 -9 -9 -9 -9 -8 -8 -8 -8 -8 -8 -8 -8 -7 -7 -7 -7 -6 -6 -6 -6 -6 -6 -6 -6 -6 -6 -6 -6 -6 -6 -6 -6 -6 -6 -6 -6 -6
-13 -12 -12 -12 -11 -11 -12 -12 -11 -10 -10 -10 -9 -9 -9 -8 -8 -9 -9 -9 -9 -8 -8 -9 -9 -9 -9 -9 -9 -9 -9 -9 -8 -8 -8 -8 -8 -8 -8 -7 -7 -7 -6 -6 -6 -6 -6 -6 -6 -6 -6 -6 -6 -6 -6 -6 -6 -6 -6 -6 -6 -6 -6
-13 -13 -12 -12 -12 -12 -12 -12 -11 -11 -11 -10 -10 -9 -9 -8 -8 -8 -9 -9 -9 -8 -8 -9 -9 -9 -9 -9 -9 -9 -9 -9 -9 -9 -9 -8 -8 -8 -8 -7 -7 -7 -7 -6 -6 -6 -6 -5 -5 -5 -5 -6 -6 -6 -5 -6 -6 -6 -6 -6 -6 -6 -6
-14 -13 -13 -12 -12 -12 -12 -12 -12 -11 -11 -11 -10 -9 -9 -9 -8 -8 -8 -9 -9 -9 -8 -9 -9 -9 -9 -9 -9 -9 -9 -9 -9 -9 -9 -9 -8 -8 -8 -8 -8 -7 -7 -7 -6 -6 -6 -5 -5 -5 -5 -5 -5 -5 -5 -5 -5 -6 -6 -6 -6 -6 -6
-14 -13 -13 -13 -12 -12 -12 -12 -12 -11 -11 -11 -10 -10 -10 -9 -9 -9 -9 -9 -9 -9 -9 -9 -9 -9 -9 -9 -9 -9 -9 -9 -9 -9 -9 -9 -9 -8 -8 -8 -7 -7 -7 -7 -6 -6 -6 -6 -6 -6 -5 -5 -5 -5 -5 -5 -5 -5 -5 -6 -6 -5 -5
-15 -14 -13 -13 -13 -12 -12 -12 -12 -12 -12 -11 -11 -10 -10 -10 -9 -9 -9 -9 -9 -9 -9 -9 -9 -9 -10 -9 -9 -9 -9 -9 -9 -9 -9 -9 -9 -8 -8 -8 -8 -7 -7 -7 -6 -6 -6 -6 -6 -6 -6 -6 -5 -6 -6 -6 -5 -5 -5 -5 -5 -5 -5
-15 -15 -14 -13 -13 -13 -12 -12 -12 -12 -12 -11 -11 -11 -10 -10 -10 -10 -10 -9 -9 -9 -9 -9 -9 -9 -10 -10 -10 -9 -9 -9 -9 -9 -9 -9 -9 -9 -9 -8 -8 -7 -7 -7 -6 -6 -6 -6 -6 -6 -6 -6 -6 -6 -6 -6 -5 -5 -5 -5 -5 -5 -5
-16 -15 -14 -14 -13 -13 -13 -12 -12 -12 -12 -12 -12 -11 -11 -10 -10 -10 -10 -10 -10 -9 -9 -9 -9 -9 -10 -10 -10 -9 -9 -9 -9 -9 -9 -9 -9 -9 -8 -8 -8 -8 -7 -7 -6 -6 -6 -6 -6 -6 -6 -6 -6 -6 -6 -5 -5 -5 -5 -5 -5 -5 -5
-17 -16 -15 -14 -13 -13 -13 -13 -13 -13 -13 -12 -12 -12 -12 -11 -10 -10 -9 -10 -10 -10 -10 -10 -10 -10 -10 -10 -9 -9 -9 -9 -9 -9 -9 -9 -9 -9 -8 -8 -8 -8 -8 -7 -7 -6 -6 -6 -6 -6 -6 -6 -6 -6 -5 -5 -5 -5 -5 -5 -5 -5 -5
-16 -16 -15 -15 -14 -13 -13 -13 -13 -13 -13 -13 -13 -12 -12 -12 -11 -11 -10 -10 -10 -10 -10 -10 -10 -10 -10 -9 -9 -9 -9 -9 -9 -9 -9 -9 -9 -8 -8 -8 -8 -8 -8 -8 -7 -7 -6 -6 -6 -6 -6 -6 -6 -6 -5 -5 -5 -5 -5 -5 -5 -5 -5
Height
5778 5783 5787 5790 5792 5796 5801 5804 5805 5809 5814 5816 5819 5821 5825 5827 5828 5829 5831 5830 5830 5834 5838 5842 5846 5848 5850 5853 5853 5855 5857 5859 5862 5865 5867 5870 5871 5872 5874 5876 5878 5880 5883 5885 5886 5888 5889 5891 5892 5894 5896 5898 5900 5902 5903 5905 5907 5909 5912 5914 5916 5918 5919
5773 5779 5783 5785 5788 5793 5796 5799 5803 5808 5811 5813 5816 5818 5820 5821 5821 5823 5827 5828 5829 5831 5835 5839 5842 5844 5847 5849 5850 5852 5854 5856 5859 5862 5865 5868 5870 5871 5873 5875 5877 5879 5881 5883 5884 5886 5888 5889 5890 5892 5895 5897 5899 5901 5903 5904 5906 5909 5911 5913 5915 5917 5918
5769 5775 5777 5779 5783 5788 5793 5797 5801 5804 5806 5808 5810 5811 5813 5815 5817 5820 5824 5826 5827 5828 5832 5837 5839 5840 5844 5846 5846 5847 5849 5852 5856 5860 5863 5866 5868 5870 5871 5873 5875 5877 5879 5881 5883 5884 5886 5887 5888 5891 5893 5895 5897 5899 5902 5904 5906 5908 5910 5912 5914 5916 5918
5763 5766 5768 5771 5777 5783 5788 5791 5794 5798 5802 5804 5806 5808 5810 5813 5814 5818 5822 5823 5823 5826 5830 5834 5836 5837 5841 5843 5843 5843 5845 5849 5852 5857 5860 5863 5866 5868 5869 5871 5873 5875 5877 5879 5881 5883 5885 5886 5887 5890 5892 5894 5896 5898 5900 5902 5904 5906 5908 5910 5913 5915 5917
5752 5755 5760 5766 5774 5778 5780 5781 5785 5791 5794 5799 5803 5805 5807 5810 5812 5815 5818 5819 5821 5826 5830 5831 5833 5834 5837 5839 5841 5841 5843 5846 5849 5853 5857 5861 5864 5866 5867 5870 5872 5874 5875 5877 5879 5881 5883 5884 5886 5888 5890 5892 5894 5896 5898 5901 5903 5905 5907 5909 5911 5914 5916
5742 5749 5759 5768 5774 5775 5776 5778 5782 5787 5790 5794 5797 5799 5802 5806 5808 5812 5815 5817 5821 5825 5827 5828 5829 5831 5833 5837 5839 5839 5840 5843 5847 5850 5854 5858 5861 5864 5866 5868 5870 5872 5873 5875 5877 5879 5881 5883 5884 5886 5888 5890 5892 5894 5897 5899 5901 5903 5905 5907 5909 5912 5914
5740 5748 5757 5766 5771 5774 5776 5778 5781 5785 5788 5791 5793 5796 5801 5804 5807 5811 5814 5815 5819 5822 5823 5825 5827 5829 5831 5834 5836 5837 5837 5840 5844 5848 5852 5856 5859 5861 5863 5865 5868 5870 5871 5873 5875 5877 5879 5882 5883 5885 5887 5889 5891 5893 5895 5897 5900 5901 5903 5905 5907 5910 5912
5742 5747 5751 5756 5764 5770 5772 5773 5777 5781 5785 5790 5793 5797 5801 5804 5806 5809 5810 5812 5816 5819 5820 5823 5825 5827 5828 5830 5832 5833 5835 5838 5842 5846 5849 5852 5855 5858 5860 5863 5866 5868 5869 5871 5873 5876 5878 5880 5881 5883 5885 5887 5889 5891 5894 5896 5898 5899 5901 5903 5906 5908 5910
5738 5743 5745 5748 5754 5762 5765 5769 5774 5778 5782 5788 5791 5794 5798 5800 5803 5806 5807 5809 5814 5816 5817 5821 5823 5824 5825 5827 5829 5831 5832 5836 5840 5843 5846 5849 5852 5855 5857 5860 5863 5865 5867 5869 5872 5875 5877 5878 5879 5881 5884 5886 5888 5890 5892 5894 5896 5898 5900 5901 5904 5907 5909
5731 5736 5740 5744 5749 5754 5760 5766 5770 5774 5778 5781 5785 5789 5792 5794 5799 5802 5803 5807 5812 5814 5815 5818 5821 5822 5824 5825 5827 5828 5831 5834 5838 5841 5843 5846 5850 5852 5855 5858 5861 5863 5866 5868 5871 5873 5875 5876 5878 5880 5882 5884 5886 5888 5890 5893 5895 5897 5899 5900 5902 5905 5908
5724 5731 5736 5741 5744 5748 5754 5760 5764 5769 5773 5777 5782 5785 5787 5791 5796 5799 5801 5807 5811 5811 5813 5817 5819 5820 5822 5824 5825 5826 5829 5832 5836 5839 5841 5844 5847 5850 5853 5856 5859 5861 5864 5867 5869 5872 5873 5875 5877 5879 5881 5883 5885 5887 5889 5891 5893 5896 5898 5900 5902 5904 5906
5719 5728 5733 5737 5739 5743 5747 5754 5760 5765 5770 5774 5778 5781 5785 5790 5794 5796 5801 5806 5808 5808 5811 5815 5818 5819 5820 5822 5823 5825 5828 5831 5834 5837 5839 5842 5845 5848 5851 5854 5856 5859 5862 5864 5867 5869 5871 5873 5875 5877 5879 5881 5883 5885 5887 5889 5892 5894 5896 5899 5901 5903 5905
5718 5725 5730 5734 5737 5740 5743 5749 5757 5762 5767 5771 5774 5779 5784 5788 5791 5796 5800 5804 5806 5807 5809 5813 5816 5817 5818 5820 5822 5825 5827 5830 5832 5835 5838 5840 5843 5846 5849 5852 5855 5857 5860 5862 5865 5867 5869 5871 5874 5875 5877 5879 5881 5883 5886 5888 5890 5892 5895 5897 5899 5901 5903
5716 5722 5726 5730 5734 5738 5742 5748 5755 5761 5765 5769 5773 5778 5783 5786 5789 5795 5799 5802 5805 5806 5807 5809 5812 5814 5816 5818 5820 5823 5826 5829 5831 5833 5836 5839 5841 5844 5847 5850 5853 5856 5858 5860 5863 5866 5868 5870 5872 5874 5875 5877 5880 5882 5884 5887 5889 5891 5893 5895 5897 5899 5901
5713 5717 5721 5726 5730 5735 5741 5748 5755 5760 5764 5768 5773 5777 5781 5785 5788 5792 5795 5798 5801 5802 5804 5805 5808 5811 5813 5815 5818 5821 5824 5827 5830 5831 5834 5837 5840 5842 5845 5849 5852 5854 5857 5859 5861 5863 5866 5868 5870 5872 5874 5876 5878 5881 5883 5885 5887 5890 5892 5894 5895 5897 5899
5707 5712 5718 5723 5728 5733 5739 5746 5751 5756 5760 5765 5770 5774 5777 5781 5785 5789 5792 5795 5797 5799 5800 5801 5803 5807 5810 5813 5816 5818 5821 5825 5828 5830 5832 5836 5838 5841 5844 5847 5850 5853 5855 5857 5859 5862 5864 5866 5868 5871 5873 5875 5877 5880 5882 5884 5886 5888 5890 5892 5894 5896 5898
5705 5711 5715 5720 5726 5731 5736 5741 5744 5748 5754 5759 5763 5767 5771 5777 5782 5787 5790 5793 5794 5795 5796 5797 5800 5804 5808 5812 5814 5815 5819 5822 5825 5827 5830 5833 5836 5839 5843 5846 5848 5851 5854 5856 5858 5860 5862 5865 5867 5869 5871 5874 5876 5879 5881 5883 5885 5887 5889 5891 5893 5895 5896
5702 5707 5711 5717 5722 5725 5729 5733 5736 5741 5748 5753 5758 5763 5769 5774 5779 5784 5787 5789 5790 5791 5792 5795 5798 5801 5805 5809 5811 5813 5817 5820 5823 5825 5827 5830 5834 5837 5840 5843 5845 5848 5851 5853 5855 5857 5859 5862 5864 5867 5869 5872 5875 5877 5879 5881 5883 5885 5887 5889 5891 5893 5895
5698 5704 5708 5711 5714 5717 5721 5726 5732 5738 5744 5749 5755 5763 5768 5772 5776 5779 5780 5782 5785 5787 5790 5792 5794 5798 5802 5806 5808 5812 5815 5817 5820 5823 5825 5828 5832 5834 5837 5839 5842 5844 5847 5849 5851 5853 5856 5858 5861 5864 5867 5870 5872 5874 5877 5879 5882 5884 5886 5888 5890 5892 5894
5694 5699 5702 5705 5707 5712 5718 5723 5730 5736 5741 5746 5752 5760 5766 5770 5772 5773 5774 5776 5780 5783 5786 5789 5792 5794 5799 5804 5807 5810 5812 5815 5817 5820 5823 5826 5829 5832 5834 5836 5839 5842 5844 5846 5849 5851 5854 5857 5859 5862 5865 5867 5870 5872 5875 5878 5880 5883 5885 5887 5889 5890 5892
5688 5694 5699 5702 5705 5709 5713 5718 5725 5731 5737 5743 5750 5755 5761 5764 5766 5767 5769 5773 5777 5778 5781 5787 5789 5790 5797 5803 5806 5808 5810 5812 5815 5818 5821 5824 5826 5829 5831 5834 5837 5839 5842 5845 5847 5849 5852 5855 5858 5861 5864 5866 5868 5871 5873 5875 5878 5881 5883 5885 5887 5888 5890
5683 5690 5695 5698 5701 5704 5708 5713 5719 5726 5733 5740 5745 5750 5755 5758 5759 5763 5767 5771 5775 5776 5779 5783 5785 5788 5795 5800 5803 5804 5807 5810 5813 5815 5818 5821 5824 5826 5828 5831 5834 5836 5839 5842 5844 5847 5850 5853 5855 5858 5861 5864 5866 5869 5871 5873 5875 5878 5880 5882 5884 5886 5888
5680 5685 5689 5693 5696 5699 5704 5710 5716 5723 5730 5736 5742 5746 5750 5752 5755 5760 5765 5769 5773 5775 5777 5781 5783 5786 5791 5796 5798 5800 5803 5806 5809 5812 5815 5818 5821 5823 5826 5828 5831 5834 5836 5838 5841 5844 5847 5850 5853 5855 5857 5860 5863 5866 5868 5870 5873 5875 5877 5879 5881 5883 5885
5676 5680 5684 5690 5695 5696 5701 5707 5713 5719 5726 5734 5739 5742 5743 5747 5752 5757 5762 5766 5770 5772 5775 5778 5781 5784 5787 5791 5794 5797 5800 5802 5806 5809 5813 5816 5818 5821 5824 5826 5829 5831 5834 5836 5839 5841 5844 5847 5849 5852 5854 5857 5859 5862 5864 5867 5869 5872 5874 5876 5878 5880 5882
5670 5675 5680 5688 5693 5695 5699 5704 5708 5713 5721 5729 5734 5736 5738 5742 5748 5753 5758 5762 5767 5769 5771 5775 5778 5781 5784 5787 5790 5794 5797 5800 5803 5807 5811 5814 5817 5819 5822 5825 5827 5829 5832 5834 5836 5838 5841 5843 5846 5849 5851 5853 5856 5858 5860 5863 5865 5868 5870 5872 5874 5876 5878
5667 5671 5677 5683 5689 5693 5696 5698 5703 5710 5717 5722 5727 5732 5736 5739 5742 5747 5752 5757 5762 5765 5768 5772 5775 5778 5782 5785 5787 5791 5795 5798 5801 5805 5808 5811 5814 5817 5820 5823 5825 5827 5829 5831 5833 5835 5837 5840 5842 5845 5848 5850 5852 5854 5857 5859 5861 5864 5866 5868 5870 5872 5874
5664 5669 5676 5681 5686 5690 5693 5693 5698 5705 5711 5715 5721 5727 5732 5735 5737 5741 5746 5750 5756 5761 5764 5769 5773 5776 5780 5783 5785 5788 5792 5795 5798 5802 5806 5809 5812 5815 5818 5820 5822 5824 5826 5828 5830 5832 5834 5836 5839 5841 5843 5846 5848 5851 5853 5855 5858 5860 5862 5864 5865 5867 5869
5663 5668 5672 5677 5681 5685 5687 5689 5692 5697 5703 5710 5715 5721 5726 5728 5729 5734 5740 5744 5750 5755 5760 5765 5769 5773 5777 5780 5783 5786 5789 5792 5795 5799 5803 5806 5809 5811 5814 5816 5818 5820 5822 5825 5827 5829 5831 5833 5835 5837 5840 5842 5844 5847 5849 5851 5853 5855 5858 5859 5861 5863 5865
5661 5662 5665 5670 5675 5677 5679 5682 5685 5691 5697 5704 5710 5717 5723 5723 5721 5724 5732 5738 5742 5748 5753 5758 5764 5769 5773 5776 5779 5783 5787 5790 5794 5797 5800 5802 5805 5808 5810 5812 5815 5817 5819 5821 5824 5826 5828 5830 5832 5834 5837 5839 5841 5843 5845 5847 5849 5851 5853 5855 5857 5859 5860
5653 5654 5660 5667 5670 5670 5673 5677 5682 5688 5694 5700 5706 5712 5718 5719 5718 5719 5724 5729 5735 5741 5746 5751 5758 5764 5768 5771 5775 5778 5782 5787 5790 5794 5797 5799 5802 5804 5806 5808 5811 5813 5816 5818 5820 5822 5824 5827 5829 5831 5834 5836 5838 5839 5841 5844 5846 5848 5850 5851 5853 5855 5856
5647 5650 5657 5663 5664 5664 5670 5676 5682 5688 5693 5698 5703 5708 5712 5716 5717 5719 5721 5725 5729 5735 5740 5744 5750 5757 5762 5766 5770 5774 5777 5781 5785 5788 5791 5794 5797 5800 5802 5804 5806 5809 5812 5815 5817 5819 5821 5824 5826 5828 5831 5833 5835 5837 5839 5841 5843 5845 5847 5848 5850 5852 5853
5644 5649 5656 5659 5659 5663 5671 5678 5682 5686 5690 5696 5702 5706 5709 5713 5715 5718 5720 5723 5726 5730 5735 5739 5744 5749 5755 5760 5764 5769 5773 5776 5780 5783 5786 5789 5792 5795 5798 5800 5802 5805 5808 5811 5813 5816 5818 5821 5823 5825 5828 5830 5832 5835 5837 5838 5840 5842 5844 5846 5847 5849 5851
5641 5648 5653 5656 5658 5663 5671 5676 5679 5683 5687 5693 5698 5703 5706 5709 5712 5715 5717 5721 5724 5727 5730 5735 5739 5743 5749 5754 5759 5763 5768 5772 5775 5778 5781 5784 5788 5791 5794 5797 5799 5801 5803 5807 5810 5812 5814 5817 5820 5822 5824 5827 5830 5832 5834 5836 5837 5839 5841 5843 5845 5846 5848
5639 5644 5648 5650 5654 5659 5666 5670 5675 5680 5685 5690 5695 5698 5701 5704 5708 5710 5713 5717 5721 5724 5728 5732 5736 5740 5744 5749 5753 5758 5763 5767 5771 5774 5777 5780 5783 5786 5790 5792 5795 5798 5800 5802 5805 5808 5810 5813 5816 5818 5821 5823 5826 5828 5830 5832 5834 5835 5837 5839 5841 5843 5845
5638 5641 5644 5647 5651 5656 5661 5666 5671 5676 5681 5686 5690 5694 5697 5700 5704 5706 5709 5713 5717 5720 5724 5729 5732 5736 5740 5744 5748 5753 5757 5762 5767 5770 5773 5776 5779 5782 5785 5788 5791 5794 5796 5798 5800 5803 5806 5809 5811 5814 5817 5819 5821 5823 5825 5827 5829 5831 5833 5835 5837 5839 5841
5637 5640 5642 5645 5650 5655 5659 5663 5666 5671 5675 5680 5684 5689 5693 5697 5700 5702 5705 5708 5712 5715 5719 5723 5727 5730 5734 5738 5743 5748 5752 5757 5762 5766 5769 5772 5774 5777 5781 5784 5787 5790 5792 5794 5796 5798 5801 5804 5807 5810 5812 5814 5816 5819 5821 5823 5825 5827 5829 5831 5833 5835 5837
5635 5639 5641 5643 5648 5654 5658 5660 5663 5667 5670 5674 5679 5683 5688 5692 5696 5698 5700 5703 5706 5710 5714 5717 5720 5724 5729 5733 5738 5743 5747 5752 5756 5760 5764 5767 5769 5773 5776 5779 5782 5785 5787 5789 5792 5794 5797 5799 5802 5805 5807 5809 5811 5814 5816 5819 5821 5823 5825 5827 5829 5831 5833
Wind_Speed
48 44 43 43 43 42 40 40 40 38 36 34 34 34 32 34 37 37 40 43 42 38 36 34 32 31 29 29 27 26 23 19 17 16 13 14 20 23 20 16 14 13 14 13 11 10 14 17 16 16 18 19 20 21 21 22 23 23 23 22 21 22 21
49 45 42 43 44 43 41 41 39 36 35 34 34 34 33 35 38 36 36 40 41 38 33 31 33 33 31 30 29 28 27 24 21 19 15 16 22 22 18 15 15 16 15 14 14 13 14 17 17 17 18 19 20 21 21 21 22 22 22 21 22 22 22
48 45 43 44 45 43 41 39 38 37 36 36 37 37 37 36 36 34 32 35 38 36 29 27 31 34 31 31 32 32 31 30 27 23 19 17 22 23 21 20 19 17 15 16 17 16 16 18 17 16 17 19 20 20 20 20 21 22 22 22 22 22 22
48 46 47 48 47 45 43 43 41 38 37 37 37 37 36 35 34 31 28 30 34 31 23 22 28 32 31 33 35 34 34 35 31 26 22 17 21 25 24 21 17 15 15 17 19 18 18 18 16 14 15 17 18 19 20 20 20 21 21 21 21 21 22
49 47 50 52 48 46 48 49 47 44 42 39 37 37 36 34 34 31 28 29 29 24 20 20 24 27 28 32 37 37 37 38 35 28 24 18 20 24 23 19 16 15 16 19 21 21 20 18 17 15 14 15 16 18 19 21 20 20 19 19 19 19 20
53 48 48 48 46 46 48 49 47 46 44 41 40 40 38 36 35 31 28 28 25 20 19 20 22 24 24 24 27 32 37 40 38 30 23 17 19 24 23 19 16 16 18 21 24 23 22 20 17 15 14 14 14 16 18 21 21 20 20 19 19 19 20
56 52 48 45 43 43 44 45 45 44 44 43 42 40 36 34 33 28 26 26 23 21 22 22 22 25 24 22 22 26 32 36 34 28 21 17 19 22 22 20 17 16 18 23 25 24 22 18 16 16 16 15 14 15 18 20 21 21 21 20 21 21 21
54 55 51 45 42 41 42 44 45 44 44 42 40 37 32 30 29 26 27 26 21 21 23 21 22 25 24 22 24 27 30 30 27 24 21 20 20 21 21 20 17 15 18 23 25 23 21 18 16 18 18 17 16 16 17 19 21 22 22 21 22 23 24
50 52 50 45 42 42 42 43 43 43 42 40 40 37 33 32 29 27 29 27 21 19 20 20 21 23 23 23 24 27 27 25 22 21 21 21 21 22 23 21 19 18 20 23 22 21 20 18 18 19 19 19 19 17 16 18 21 22 22 22 22 23 24
50 52 50 46 44 42 40 41 42 42 42 42 42 39 38 37 32 30 32 27 21 20 18 15 18 21 23 23 22 22 22 19 17 18 19 20 20 24 26 24 22 22 22 22 20 18 19 20 20 21 20 20 20 18 17 18 19 21 21 22 22 23 23
53 53 51 48 46 44 40 40 42 43 42 42 41 39 39 38 33 33 33 25 21 21 16 13 18 21 22 22 20 17 16 14 15 16 18 19 20 24 28 27 25 24 23 22 21 18 18 20 22 22 22 21 20 18 17 19 20 20 20 21 21 22 22
55 53 52 50 48 47 43 39 39 41 43 42 41 40 38 36 33 32 31 27 23 20 15 13 18 21 21 20 17 15 14 11 12 15 17 19 21 23 27 27 24 22 23 25 24 21 20 21 23 24 24 22 20 18 18 19 21 21 21 21 21 21 21
55 52 51 51 50 50 47 40 36 38 43 43 42 40 36 34 33 30 29 30 27 21 18 17 18 20 20 20 19 18 16 12 11 14 16 19 22 23 24 23 21 22 24 27 27 25 22 22 23 25 24 22 20 19 18 20 21 22 22 22 21 20 20
56 52 51 51 50 50 48 42 34 34 41 45 42 38 34 33 31 27 27 31 32 27 25 24 23 23 23 23 23 24 21 16 13 15 17 18 21 23 22 19 19 22 26 27 27 26 24 22 23 25 23 20 18 17 17 19 21 22 23 22 22 21 20
57 54 50 47 46 47 46 42 36 32 36 45 44 38 34 31 27 24 25 29 34 35 32 30 30 29 28 27 27 27 24 18 15 16 20 20 21 23 22 20 22 25 26 27 27 27 25 22 23 23 21 19 18 16 17 18 18 19 19 20 20 20 20
59 54 50 45 43 46 47 44 41 36 35 43 47 40 35 31 24 23 25 26 28 35 39 38 36 34 33 31 29 28 26 20 16 19 22 21 21 22 23 23 24 26 26 25 26 26 24 23 23 22 22 21 19 18 17 17 17 17 16 16 17 18 18
58 52 50 46 42 46 48 47 48 44 38 43 50 46 39 33 26 23 26 26 24 30 38 42 42 39 37 35 33 32 29 23 19 20 23 23 23 23 23 23 24 25 24 23 24 24 24 23 24 24 24 23 21 20 19 18 17 16 15 15 15 15 15
58 52 51 48 45 49 52 51 52 49 41 42 51 50 42 36 32 27 28 29 28 30 33 38 42 43 41 39 38 35 30 25 22 21 21 23 25 26 26 25 24 25 25 25 26 27 27 26 26 28 28 26 25 24 22 20 18 17 16 16 15 14 13
61 53 53 52 50 53 55 54 53 50 43 43 49 50 44 37 35 34 33 34 35 34 33 34 38 41 39 37 36 32 28 26 24 23 21 22 24 26 27 28 28 29 30 30 31 31 30 29 29 31 31 29 28 27 25 22 20 19 18 17 16 15 14
64 56 54 54 54 55 56 55 53 49 45 46 48 49 46 41 39 39 38 38 38 37 35 34 36 38 37 34 32 29 27 28 28 27 24 22 22 24 25 26 27 28 31 33 33 31 29 27 28 30 32 31 29 27 26 24 22 21 20 19 17 17 15
67 60 54 51 53 56 56 55 55 52 49 49 50 50 50 47 46 46 41 40 41 38 34 34 36 38 35 31 30 29 28 29 28 27 26 23 20 20 21 21 21 22 25 28 28 27 25 24 25 27 30 30 29 28 27 26 25 23 22 20 18 17 17
69 65 56 49 52 56 56 55 56 56 53 52 52 53 54 52 52 51 45 42 41 39 37 37 38 38 35 31 30 31 31 30 28 27 27 24 21 20 19 19 19 19 20 21 21 21 22 23 24 26 28 29 29 27 26 26 25 24 23 21 19 18 18
70 69 61 51 52 58 58 55 56 57 57 55 54 55 56 56 56 53 48 45 43 41 41 41 41 39 36 34 34 34 33 32 30 29 27 24 22 20 19 19 19 19 19 20 20 19 20 21 23 24 26 27 27 26 25 23 23 22 21 20 19 19 19
70 72 67 54 51 58 59 55 56 59 59 56 55 55 56 58 58 54 51 49 48 47 45 43 41 40 38 37 37 37 36 35 33 31 28 25 23 21 20 20 19 19 20 21 22 22 21 22 22 23 24 25 25 25 25 24 23 22 21 21 21 20 21
71 72 72 60 51 56 58 53 56 62 61 57 57 58 57 59 60 57 54 52 51 52 52 47 43 42 40 39 39 38 37 37 36 33 30 28 27 24 22 21 21 21 22 22 23 24 24 23 23 23 23 24 25 25 25 24 24 24 24 24 24 24 24
73 73 75 67 56 54 54 51 55 64 64 60 61 61 57 58 63 62 58 56 54 55 56 54 50 47 44 43 42 41 40 39 38 36 33 32 31 29 26 24 23 23 23 24 25 25 25 25 24 24 25 26 27 28 28 27 27 26 26 26 26 26 27
75 73 76 73 63 53 49 49 56 65 64 60 64 66 60 58 65 66 62 59 58 57 56 55 53 51 48 47 47 46 45 44 43 40 37 36 34 33 30 28 27 26 25 25 25 26 27 27 27 27 28 28 29 29 29 28 28 28 28 28 28 29 29
74 73 75 77 71 57 49 49 56 65 65 61 65 71 65 61 67 71 65 61 60 59 56 54 54 53 51 50 50 49 49 49 48 45 41 39 37 35 33 31 29 28 27 26 25 26 27 28 29 29 29 28 28 29 29 28 28 28 29 29 30 30 31
72 71 73 77 77 66 53 50 54 63 68 64 66 73 68 61 67 74 70 64 63 62 59 56 54 54 53 52 51 51 50 50 50 48 45 42 40 36 34 33 31 30 29 27 26 26 26 27 28 28 28 28 28 28 28 28 28 29 29 29 30 30 31
66 69 71 75 79 75 64 51 48 57 67 66 67 74 72 61 62 70 73 69 67 66 63 60 56 54 55 55 54 52 52 51 50 50 48 45 42 39 36 34 34 33 31 29 28 27 27 27 27 27 27 27 27 27 27 28 28 28 28 28 28 28 28
59 66 71 72 76 80 75 60 47 50 62 66 66 72 76 68 61 62 67 70 70 69 67 64 61 57 56 57 57 55 55 54 53 52 51 48 45 42 39 37 37 36 35 33 31 30 29 28 27 26 26 25 25 25 26 26 26 26 26 26 26 25 25
54 62 69 70 71 78 80 70 56 50 56 63 66 68 72 72 67 63 64 66 69 72 71 68 64 60 58 57 57 57 57 56 55 54 53 51 48 45 42 40 40 39 38 36 34 33 32 30 28 27 26 25 25 24 24 24 25 25 25 25 25 24 24
48 57 65 68 68 73 78 76 68 58 53 55 61 66 69 70 67 65 65 63 63 67 71 70 66 63 60 59 58 58 57 57 56 55 53 51 48 45 43 42 42 42 41 39 37 35 34 33 31 29 27 26 25 24 24 25 25 26 26 25 25 25 25
42 51 61 67 67 70 74 74 72 67 59 53 53 59 67 72 70 66 64 62 59 60 64 66 65 63 61 60 59 59 58 57 56 55 52 49 47 44 43 43 44 44 44 43 41 39 38 36 34 32 30 28 27 26 27 27 27 27 27 27 27 26 26
39 44 54 64 68 71 73 73 70 67 66 63 56 52 58 68 74 73 69 63 59 58 58 59 61 62 61 61 61 61 60 59 57 54 51 48 46 43 41 42 43 45 45 45 44 42 41 39 37 35 33 32 30 29 30 30 30 30 30 29 29 28 28
40 42 47 56 66 72 74 74 72 66 63 65 64 58 56 60 69 76 77 71 65 61 58 55 57 61 63 63 64 65 64 62 60 57 54 51 49 46 43 41 42 43 44 45 46 45 44 43 41 39 37 36 34 33 32 32 32 32 32 32 31 31 30
42 44 47 51 59 67 70 72 74 70 65 63 62 60 61 61 62 69 76 77 74 69 63 59 60 64 67 67 67 68 67 65 62 61 59 57 54 51 47 43 42 42 43 45 46 47 47 47 45 43 41 39 37 36 35 34 34 34 34 34 33 33 32
Wind_Direction
211 213 213 211 212 214 213 214 217 218 221 222 220 222 224 224 225 222 220 227 235 238 239 238 236 233 229 227 231 233 229 233 237 224 205 190 193 193 189 191 204 215 219 219 220 220 211 200 193 196 202 204 205 205 205 206 205 203 201 198 198 200 199
211 210 211 212 212 212 213 214 217 218 217 218 219 221 220 220 223 223 220 225 233 237 237 236 238 238 236 235 239 242 236 235 239 234 217 191 189 192 190 198 216 225 226 223 220 222 216 204 196 197 200 204 206 206 207 207 206 206 207 207 206 204 199
209 209 210 211 210 210 213 215 217 217 217 218 218 219 219 220 222 222 219 222 230 235 233 231 236 240 240 239 242 244 240 239 243 239 225 197 187 196 202 207 215 221 226 226 219 218 219 211 202 198 199 201 203 205 207 208 206 205 208 212 213 209 202
205 208 209 210 210 208 209 213 214 214 218 222 223 223 222 222 224 223 219 220 226 231 230 228 234 238 238 236 239 245 244 245 247 241 231 210 191 197 204 205 212 221 228 229 222 217 221 217 206 199 200 200 201 203 205 206 206 207 209 213 215 213 206
200 205 208 207 209 209 208 211 211 209 212 215 220 225 225 225 227 224 218 218 220 224 227 229 230 230 228 227 234 243 246 245 246 241 233 218 194 192 197 199 213 228 232 229 222 216 219 216 202 195 198 198 201 204 205 206 206 206 208 211 214 214 209
198 199 205 206 209 213 214 214 213 211 211 212 214 218 220 223 227 226 222 222 219 217 217 215 213 213 210 209 220 235 239 239 240 238 232 217 193 191 197 202 215 232 232 224 218 215 217 212 198 193 195 193 196 203 207 209 207 204 204 205 207 208 206
200 196 199 204 211 217 218 218 217 216 215 215 217 219 220 221 224 226 227 227 222 217 213 203 198 203 201 195 203 220 228 230 232 230 224 211 197 195 200 204 211 227 227 217 214 214 214 209 198 195 195 189 190 199 206 208 206 203 200 201 201 198 193
203 198 196 200 208 215 218 218 217 218 218 219 222 224 225 225 224 221 224 225 219 218 218 205 193 195 196 198 205 214 221 223 220 216 211 205 199 197 196 195 203 216 212 207 210 210 208 205 199 198 195 189 188 194 202 205 204 201 197 197 199 194 187
198 196 192 195 202 208 216 218 217 218 219 220 223 222 222 224 221 216 221 221 212 215 221 212 200 195 194 200 207 214 221 219 212 208 206 202 198 193 188 187 200 209 203 200 204 205 203 202 201 199 195 189 186 187 197 203 203 200 196 193 195 194 191
190 191 189 192 197 201 209 215 216 218 218 219 220 219 219 220 215 212 217 214 204 212 217 208 206 204 202 205 207 213 219 218 213 209 205 203 199 190 185 188 199 204 200 196 197 198 200 199 200 199 192 184 182 184 192 199 200 199 196 192 192 195 195
188 189 189 191 194 196 200 205 210 215 218 219 219 218 219 219 214 213 213 202 197 210 202 182 197 207 210 209 205 209 216 216 214 210 204 205 200 189 185 188 194 198 202 203 197 196 202 201 198 195 187 180 178 181 188 194 197 197 195 192 191 193 196
187 187 189 193 195 195 196 198 203 210 214 217 218 217 217 218 216 214 208 194 190 194 179 174 198 208 215 218 212 214 219 219 219 212 203 201 198 191 188 190 195 200 207 211 205 199 204 205 196 189 183 180 179 182 187 191 194 194 193 194 193 193 196
184 183 188 195 198 198 196 194 198 204 208 213 217 217 216 216 216 213 205 194 187 178 170 182 201 206 212 217 217 220 220 219 223 215 203 199 195 191 189 192 200 205 207 210 207 203 205 205 197 188 183 183 185 187 189 190 191 191 192 193 193 194 196
180 180 186 194 200 202 200 196 196 198 202 208 215 216 214 215 215 212 204 196 192 185 181 187 197 204 209 212 216 222 222 221 223 213 205 200 190 183 182 186 192 195 197 199 200 201 203 202 199 193 187 188 191 192 193 192 190 191 191 191 190 190 191
176 179 184 190 197 201 200 198 200 202 202 204 209 213 213 211 210 208 203 200 199 197 194 196 200 206 213 217 221 226 226 224 223 211 202 196 183 176 178 180 182 186 188 188 191 196 198 197 200 199 192 191 193 193 192 190 189 191 190 187 185 183 184
175 179 184 185 191 197 196 195 199 206 207 202 201 203 205 202 198 198 199 200 204 205 203 204 207 208 212 217 221 229 231 229 224 211 198 186 177 176 180 181 182 186 188 189 193 196 195 194 199 200 196 192 191 190 190 189 189 190 187 182 178 177 181
175 180 185 184 187 193 193 192 196 203 207 201 196 194 196 193 188 192 198 200 208 213 209 209 212 212 212 214 219 228 235 235 227 211 195 183 177 180 185 186 185 185 185 189 193 194 195 197 197 198 197 192 187 187 190 192 192 190 185 181 178 178 182
176 181 186 183 184 189 190 191 196 198 200 199 195 192 191 187 183 190 201 204 210 217 214 212 214 216 216 217 221 226 230 229 225 216 201 189 184 184 187 191 192 190 189 190 189 189 194 197 195 195 195 191 187 188 189 192 193 189 184 182 179 177 181
179 181 185 182 181 186 187 190 194 194 194 195 193 190 187 182 184 194 204 206 209 214 215 214 216 218 217 218 221 222 221 217 217 217 210 199 192 189 189 191 194 193 191 192 191 190 192 194 194 194 193 190 189 189 188 189 191 188 184 184 184 184 187
182 180 182 179 179 182 183 186 191 193 192 191 189 187 184 182 190 201 205 205 207 212 214 215 218 220 219 219 220 220 216 212 210 211 210 205 200 196 193 191 192 190 191 194 196 195 194 194 194 194 195 194 193 190 187 187 189 189 187 186 189 194 198
186 181 179 176 176 179 178 180 188 191 191 189 187 186 184 186 197 205 204 204 207 210 211 213 219 222 219 218 220 220 216 212 208 208 209 208 205 202 201 199 195 192 192 195 197 198 198 198 197 195 196 198 197 194 190 189 190 192 191 189 192 198 204
190 182 180 178 176 175 173 177 185 188 188 188 186 185 185 190 200 205 204 203 204 204 204 207 216 222 220 216 218 220 218 214 211 210 210 209 207 207 207 208 206 204 203 201 199 199 199 202 204 201 199 199 199 199 196 192 193 194 193 194 196 200 206
193 186 185 182 175 172 172 177 183 185 187 187 184 185 189 195 200 203 204 203 199 196 198 203 211 219 219 217 217 218 218 217 215 215 214 210 208 208 209 211 211 211 213 213 211 208 203 202 205 205 204 204 203 203 201 199 198 198 198 200 203 206 210
197 190 189 185 175 170 172 177 181 183 185 185 185 189 194 197 199 201 202 203 198 194 194 198 207 214 217 218 219 217 216 218 219 219 219 216 214 213 213 213 214 212 213 214 216 215 210 203 201 201 202 204 205 205 205 204 205 206 207 210 213 215 218
201 195 191 188 179 171 172 178 181 182 184 185 188 194 196 196 197 199 201 203 201 197 195 195 201 208 212 216 220 219 216 218 220 221 223 224 224 224 223 220 218 216 215 215 215 214 210 205 202 201 200 201 203 205 206 208 210 212 212 215 217 217 219
204 201 194 190 186 176 172 175 179 181 184 185 187 193 197 197 197 198 200 202 203 202 200 198 200 204 208 212 217 219 218 219 221 223 225 227 228 231 230 225 222 219 217 217 215 212 210 208 207 207 206 205 204 205 207 209 211 214 215 217 219 220 219
204 204 198 195 193 184 173 172 177 181 184 186 185 189 195 198 197 199 200 201 203 206 206 204 202 203 206 209 213 216 218 220 222 225 227 228 230 232 231 227 223 221 219 218 216 213 211 210 209 210 210 209 207 206 207 209 210 212 213 214 216 218 218
204 206 204 200 197 192 181 174 177 181 183 185 185 188 193 195 194 198 201 201 202 207 209 208 206 205 206 209 213 215 217 219 222 224 226 228 231 232 231 228 226 224 222 221 218 216 213 210 208 210 211 211 209 206 205 207 209 209 211 212 214 215 216
201 206 207 203 200 200 193 180 178 182 184 185 185 188 192 191 188 194 201 202 201 205 208 210 210 207 206 208 212 215 216 218 220 223 224 226 228 229 229 229 229 227 225 223 222 220 216 211 207 208 210 211 211 208 205 204 205 207 209 211 214 217 219
196 203 208 206 204 205 202 191 182 183 184 184 185 188 192 190 185 191 199 202 202 204 207 210 212 210 208 208 210 214 216 217 219 222 224 226 227 227 227 228 230 230 227 226 224 222 220 215 211 208 209 211 213 212 208 205 204 205 206 209 213 217 220
192 199 205 208 208 208 207 201 191 184 183 185 185 188 192 194 191 192 198 201 203 204 206 210 212 211 210 210 210 213 215 217 219 221 223 225 226 226 226 227 229 230 228 227 225 223 220 218 216 213 212 212 214 215 215 214 212 211 210 210 213 217 220
193 198 203 207 210 211 210 208 202 191 185 185 187 188 191 196 198 198 199 202 204 204 206 209 211 210 210 211 213 215 217 218 220 221 222 224 226 226 226 227 229 230 230 227 225 223 221 219 218 218 216 214 214 217 220 222 222 221 219 217 217 219 221
195 198 201 207 212 213 213 213 212 206 195 188 188 189 190 192 195 197 199 200 202 203 205 207 209 209 209 211 214 217 219 221 222 222 223 225 226 227 229 230 230 231 231 230 226 223 223 222 220 220 220 220 219 220 222 224 226 227 226 225 224 224 226
200 198 201 206 212 215 215 216 218 216 210 201 194 192 191 192 193 194 196 197 199 200 202 205 208 209 209 211 215 217 220 222 223 223 225 227 229 231 232 232 231 230 231 232 230 227 225 224 224 223 223 224 226 226 225 225 227 228 229 229 229 230 232
207 203 203 205 210 214 217 218 219 220 218 215 211 203 196 194 195 197 199 200 200 201 202 204 207 210 211 213 216 219 221 222 222 224 226 227 228 230 230 230 231 231 231 233 234 233 230 228 228 229 229 229 230 231 229 227 227 229 230 231 231 233 235
215 212 209 206 207 211 216 219 221 222 222 221 220 218 212 203 198 199 202 205 205 204 203 205 208 210 212 215 218 221 223 223 223 225 226 226 227 229 229 229 232 234 235 234 235 236 235 233 232 234 235 236 236 235 233 232 231 230 231 232 233 233 235
221 218 216 211 207 208 213 218 222 224 225 225 224 224 224 221 210 202 201 205 207 206 205 207 209 211 214 217 220 222 224 225 225 224 225 227 227 226 227 231 234 235 235 236 236 237 238 238 238 238 239 240 241 240 239 237 236 235 235 235 236 236 236